Weather History for KGJT - September, 2012

Change the Weather History Date:

Wednesday, September 26, 2012

  Actual Average Record
Temperature  
Mean Temperature 52 °F 62 °F  
Max Temperature 58 °F 75 °F 89 °F (1966)
Min Temperature 45 °F 48 °F 34 °F (1970)
Degree Days  
Heating Degree Days 13 5  
Month to date heating degree days 23 50  
Since 1 July heating degree days 23 53  
Cooling Degree Days 0 1  
Month to date cooling degree days 115 99  
Year to date cooling degree days 1514 1118  
Growing Degree Days 2 (Base 50)    
Moisture  
Dew Point 48 °F    
Average Humidity 86    
Maximum Humidity 100    
Minimum Humidity 72    
Precipitation  
Precipitation 0.13 in 0.04 in 0.43 in (1926)
Month to date precipitation 0.46 1.04  
Year to date precipitation 3.02 6.89  
Snow  
Snow 0.00 in 0.00 in 0.00 in (2013)
Month to date snowfall 0.0 0.0  
Since 1 July snowfall 0.0 0.0  
Since 1 September snowfall 0.0 0.0  
Snow Depth 0.00 in    
Sea Level Pressure  
Sea Level Pressure 30.06 in    
Wind  
Wind Speed 9 mph (ESE)    
Max Wind Speed 17 mph    
Max Gust Speed 21 mph    
Visibility 10 miles    
Events Rain    
T = Trace of Precipitation, MM = Missing Value Source: NWS Daily Summary

Daily Weather History Graph

Daily Weather History Graph

Search for Another Location

Airport or City:

Trip Planner

Search our weather history database for the weather conditions in past years. The results will help you decide how hot, cold, wet, or windy it might be!

Date:

Astronomy

Sep. 26, 2012 Rise Set
Actual Time 7:06 AM MDT 7:03 PM MDT
Civil Twilight 6:39 AM MDT 7:30 PM MDT
Nautical Twilight 6:08 AM MDT 8:01 PM MDT
Astronomical Twilight 5:36 AM MDT 8:32 PM MDT
Moon 5:04 PM MDT (9/26) 3:36 AM MDT (9/26)
Length of Visible Light 12h 51m
Length of Day
11h 57m
Waxing Gibbous, 88% of the Moon is Illuminated
Sep 26
Waxing Gibbous
Sep 29
Full
Oct 8
Last Quarter
Oct 15
New
Oct 21
First Quarter

Hourly Weather History & Observations

Time (MDT) Temp. Dew Point Humidity Pressure Visibility Wind Dir Wind Speed Gust Speed Precip Events Conditions
12:53 AM 50.0 °F 48.9 °F 96% 29.97 in 10.0 mi East 4.6 mph - N/A   Mostly Cloudy
1:53 AM 51.8 °F 48.2 °F 88% 30.09 in 10.0 mi East 4.6 mph - N/A Rain Light Rain
2:53 AM 50.0 °F 48.0 °F 93% 29.99 in 10.0 mi SE 9.2 mph - 0.00 in Rain Light Rain
3:53 AM 50.0 °F 48.0 °F 93% 29.99 in 10.0 mi ESE 6.9 mph - 0.03 in   Overcast
4:53 AM 50.0 °F 46.9 °F 89% 29.99 in 10.0 mi SSE 6.9 mph - 0.01 in Rain Light Rain
5:53 AM 48.2 °F 46.4 °F 93% 30.09 in 10.0 mi ESE 10.4 mph - N/A Rain Light Rain
6:53 AM 48.9 °F 46.0 °F 90% 30.02 in 10.0 mi ESE 5.8 mph - 0.00 in   Overcast
7:53 AM 48.9 °F 46.9 °F 93% 30.05 in 10.0 mi SE 5.8 mph - 0.00 in Rain Light Rain
8:53 AM 48.9 °F 48.0 °F 97% 30.06 in 6.0 mi East 9.2 mph - 0.07 in Rain Light Rain
9:53 AM 51.1 °F 48.9 °F 92% 30.07 in 10.0 mi South 6.9 mph - 0.00 in   Overcast
10:53 AM 51.1 °F 48.9 °F 92% 30.08 in 10.0 mi South 5.8 mph - 0.00 in Rain Light Rain
11:53 AM 54.0 °F 51.1 °F 90% 30.06 in 10.0 mi ESE 9.2 mph - 0.00 in   Overcast
12:53 PM 55.0 °F 48.9 °F 80% 30.07 in 10.0 mi SE 10.4 mph - N/A   Mostly Cloudy
1:53 PM 53.1 °F 48.0 °F 83% 30.06 in 6.0 mi East 3.5 mph - 0.01 in Rain Light Rain
2:53 PM 57.9 °F 46.9 °F 67% 30.04 in 10.0 mi ESE 6.9 mph - 0.00 in Rain Light Rain
3:53 PM 55.4 °F 48.2 °F 77% 30.15 in 10.0 mi SSE 9.2 mph - N/A   Mostly Cloudy
4:53 PM 57.0 °F 48.0 °F 72% 30.05 in 10.0 mi SSE 15.0 mph - N/A   Mostly Cloudy
5:53 PM 57.0 °F 46.9 °F 69% 30.06 in 10.0 mi SE 11.5 mph - 0.00 in Rain Light Rain
6:53 PM 55.9 °F 48.0 °F 75% 30.07 in 10.0 mi SE 9.2 mph - 0.00 in   Overcast
7:53 PM 54.0 °F 46.9 °F 77% 30.08 in 10.0 mi ESE 11.5 mph - N/A   Overcast
8:53 PM 54.0 °F 46.9 °F 77% 30.09 in 10.0 mi East 11.5 mph - N/A   Overcast
9:53 PM 52.0 °F 46.9 °F 83% 30.09 in 10.0 mi East 13.8 mph - N/A   Overcast
10:53 PM 52.0 °F 46.0 °F 80% 30.10 in 10.0 mi East 10.4 mph - N/A   Mostly Cloudy
11:53 PM 48.0 °F 45.0 °F 89% 30.11 in 10.0 mi East 3.5 mph - N/A   Clear